軌道要素
Epoch 2020 Dec. 17.0 TT = JDT 2459200.5
T 2020 Dec. 26.74683 TT Rudenko
q 1.3056856 (2000.0) P Q
n 0.17815124 Peri. 320.23694 +0.03078218 -0.98795286
a 3.1280725 Node 127.46282 +0.95877976 -0.01369661
e 0.5825910 Incl. 11.01533 +0.28247803 +0.15414782
P 5.53
From 1939 observations 2009 Aug. 26-2021 Mar. 20, mean residual 1".2.
|